Location: Lake Crest
(37.6062°N, 88.9176°W)
Time: 00:28:02
(UTC+00:00)

STARLINK-24 - Pass Details

Date: 15 December 2019
Orbit: 528 x 530 km, 53.0° (Epoch: 26 January)

Event Time Altitude Azimuth Distance (km) Brightness Sun altitude
Rises 00:30:05 0° 222° (SW) 2,649 8.0 -21.5°
Reaches altitude 10° 00:32:17 10° 220° (SW) 1,763 6.9 -21.9°
Enters shadow 00:36:01 69° 170° (S) 566 3.5 -22.6°
